QPF
0.00 0.00 0.00 0.00 0.00 0.00 0.00 0.00 0.00 0.00 0.00 0.01 0.01 0.02 0.06 0.06 0.06 0.05 0.02 0.00 0.00 0.00 0.01 0.03 0.02 0.01 0.00 0.00 0.00 0.00 0.00 0.00
0.00 0.00 0.00 0.00 0.00 0.00 0.00 0.00 0.00 0.00 0.00 0.00 0.00 0.01 0.03 0.07 0.05 0.03 0.02 0.00 0.00 0.00 0.00 0.00 0.00 0.00 0.00 0.00 0.00 0.00 0.00 0.00
0.00 0.00 0.00 0.00 0.00 0.00 0.00 0.01 0.00 0.00 0.00 0.00 0.00 0.00 0.01 0.02 0.02 0.01 0.02 0.00 0.00 0.00 0.00 0.00 0.00 0.00 0.00 0.00 0.00 0.00 0.00 0.00
0.00 0.00 0.00 0.00 0.00 0.00 0.00 0.01 0.00 0.01 0.04 0.03 0.03 0.01 0.02 0.01 0.01 0.01 0.00 0.01 0.00 0.00 0.00 0.00 0.00 0.00 0.01 0.00 0.00 0.00 0.00 0.00
0.00 0.00 0.00 0.00 0.00 0.00 0.00 0.00 0.01 0.00 0.02 0.00 0.00 0.00 0.01 0.00 0.00 0.00 0.00 0.00 0.01 0.02 0.01 0.00 0.00 0.00 0.03 0.02 0.00 0.00 0.02 0.01
0.00 0.00 0.00 0.00 0.00 0.00 0.00 0.00 0.00 0.00 0.00 0.00 0.00 0.00 0.00 0.00 0.00 0.00 0.00 0.00 0.00 0.03 0.03 0.01 0.01 0.01 0.03 0.07 0.10 0.02 0.02 0.04
0.00 0.00 0.00 0.00 0.00 0.00 0.00 0.00 0.00 0.00 0.00 0.00 0.00 0.00 0.00 0.00 0.00 0.00 0.00 0.00 0.00 0.00 0.03 0.01 0.01 0.03 0.03 0.08 0.12 0.12 0.08 0.08
0.00 0.00 0.00 0.00 0.00 0.00 0.00 0.00 0.00 0.00 0.00 0.00 0.00 0.00 0.00 0.00 0.00 0.00 0.00 0.00 0.00 0.00 0.02 0.03 0.00 0.00 0.02 0.07 0.10 0.14 0.12 0.09
0.00 0.00 0.00 0.00 0.00 0.00 0.00 0.00 0.00 0.00 0.00 0.00 0.00 0.00 0.00 0.00 0.00 0.00 0.00 0.00 0.00 0.01 0.02 0.03 0.02 0.00 0.01 0.02 0.04 0.04 0.06 0.06
0.00 0.00 0.00 0.00 0.00 0.00 0.00 0.00 0.00 0.00 0.00 0.00 0.00 0.00 0.00 0.00 0.00 0.00 0.00 0.00 0.00 0.00 0.00 0.01 0.02 0.01 0.00 0.00 0.01 0.00 0.01 0.01
0.00 0.00 0.00 0.00 0.00 0.00 0.00 0.00 0.00 0.00 0.00 0.00 0.00 0.00 0.00 0.00 0.00 0.00 0.00 0.00 0.00 0.00 0.00 0.00 0.01 0.00 0.00 0.00 0.00 0.00 0.00 0.00
0.00 0.00 0.00 0.00 0.00 0.00 0.00 0.00 0.00 0.00 0.00 0.00 0.00 0.00 0.00 0.00 0.00 0.00 0.00 0.00 0.00 0.00 0.00 0.00 0.00 0.00 0.00 0.00 0.00 0.00 0.00 0.00
0.00 0.00 0.00 0.00 0.00 0.00 0.00 0.00 0.00 0.00 0.00 0.00 0.00 0.00 0.00 0.00 0.00 0.00 0.00 0.00 0.00 0.00 0.00 0.00 0.00 0.00 0.00 0.00 0.00 0.00 0.00 0.00
0.00 0.00 0.00 0.00 0.00 0.00 0.00 0.00 0.00 0.00 0.00 0.00 0.00 0.00 0.00 0.00 0.00 0.00 0.00 0.00 0.00 0.00 0.00 0.00 0.00 0.00 0.00 0.00 0.00 0.00 0.00 0.00
0.00 0.00 0.00 0.00 0.00 0.00 0.00 0.00 0.00 0.00 0.00 0.00 0.00 0.00 0.00 0.00 0.00 0.00 0.00 0.00 0.00 0.00 0.00 0.00 0.00 0.00 0.00 0.00 0.00 0.00 0.00 0.00
0.00 0.00 0.00 0.00 0.00 0.00 0.00 0.00 0.00 0.00 0.00 0.00 0.00 0.00 0.00 0.00 0.00 0.00 0.00 0.00 0.00 0.00 0.00 0.00 0.00 0.00 0.00 0.00 0.00 0.00 0.00 0.00
0.00 0.00 0.00 0.00 0.00 0.00 0.00 0.00 0.00 0.00 0.00 0.00 0.00 0.00 0.00 0.00 0.00 0.00 0.00 0.00 0.00 0.00 0.00 0.00 0.00 0.00 0.00 0.00 0.00 0.00 0.00 0.00
0.00 0.00 0.00 0.00 0.00 0.00 0.00 0.00 0.00 0.00 0.00 0.00 0.00 0.00 0.00 0.00 0.00 0.00 0.00 0.00 0.00 0.00 0.00 0.00 0.00 0.00 0.00 0.00 0.00 0.00 0.00 0.00
0.00 0.00 0.00 0.00 0.00 0.00 0.00 0.00 0.00 0.00 0.00 0.00 0.00 0.00 0.00 0.00 0.00 0.00 0.00 0.00 0.00 0.00 0.00 0.01 0.00 0.00 0.00 0.00 0.00 0.00 0.00 0.00
MSLP
1001.67 1002.99 1004.22 1005.09 1006.15 1007.31 1008.06 1008.65 1009.13 1009.67 1010.31 1011.00 1011.58 1011.91 1012.19 1012.47 1013.26 1013.77 1014.49 1014.65 1014.81 1015.38 1016.13 1017.04 1016.32 1017.15 1017.02 1017.73 1018.38 1018.83 1019.19 1019.78
1000.94 1002.48 1003.75 1004.83 1005.90 1007.02 1007.92 1008.68 1009.29 1009.78 1010.27 1010.75 1011.41 1011.93 1012.07 1012.58 1013.06 1013.82 1014.36 1014.35 1014.52 1014.97 1015.53 1015.73 1016.07 1016.67 1017.14 1017.73 1018.40 1018.85 1019.22 1019.53
1000.27 1002.06 1003.38 1004.33 1005.57 1006.89 1007.88 1008.65 1009.31 1009.75 1010.15 1010.67 1011.25 1011.75 1012.39 1012.54 1013.32 1013.91 1014.26 1014.32 1014.60 1015.18 1015.64 1016.11 1016.54 1016.96 1017.48 1017.90 1018.44 1018.89 1019.09 1019.48
999.49 1001.35 1002.80 1004.03 1004.92 1006.22 1007.52 1008.53 1009.26 1009.78 1010.12 1010.56 1011.42 1012.00 1012.57 1013.19 1013.52 1013.98 1013.87 1014.22 1014.76 1015.15 1015.69 1016.19 1016.73 1017.12 1017.58 1017.98 1018.38 1018.66 1019.36 1019.58
998.39 1000.30 1001.94 1003.20 1004.21 1005.71 1007.01 1008.09 1008.95 1009.51 1009.92 1010.44 1011.00 1011.54 1012.12 1012.63 1013.20 1013.68 1013.76 1013.86 1014.33 1014.87 1015.37 1015.79 1016.34 1016.93 1017.27 1017.84 1018.16 1018.65 1019.22 1019.57
997.32 999.22 1001.01 1002.42 1003.67 1004.89 1006.24 1007.47 1008.47 1009.12 1009.78 1010.10 1010.69 1011.29 1012.05 1012.71 1013.14 1013.52 1013.90 1014.10 1014.11 1014.52 1014.98 1015.42 1016.09 1016.46 1016.98 1017.32 1017.79 1018.40 1018.68 1019.15
996.46 998.20 1000.14 1001.60 1002.97 1004.37 1005.52 1006.62 1007.67 1008.39 1009.21 1009.76 1010.23 1010.65 1011.14 1012.03 1012.75 1013.26 1013.77 1013.98 1014.39 1014.43 1015.02 1015.22 1015.72 1016.12 1016.53 1017.05 1017.83 1018.01 1018.10 1018.41
995.93 997.52 999.28 1000.73 1002.18 1003.67 1005.01 1005.98 1006.77 1007.67 1008.52 1009.09 1009.72 1010.29 1010.73 1011.31 1011.98 1012.68 1013.26 1013.73 1013.94 1014.30 1014.62 1015.05 1015.66 1015.91 1016.00 1016.32 1017.49 1018.13 1018.66 1018.06
995.51 996.78 998.44 1000.02 1001.41 1002.82 1004.06 1005.08 1006.05 1006.93 1007.84 1008.49 1009.09 1009.72 1010.28 1010.80 1011.40 1011.98 1012.55 1012.89 1013.14 1013.50 1014.04 1014.64 1015.23 1015.42 1015.67 1016.10 1016.80 1017.28 1017.78 1018.05
995.21 996.27 997.64 999.25 1000.61 1001.92 1003.18 1004.21 1005.28 1006.29 1007.11 1007.95 1008.44 1008.89 1009.49 1010.06 1010.73 1011.36 1011.84 1012.30 1012.80 1013.12 1013.54 1014.02 1014.40 1014.70 1015.00 1015.65 1016.00 1016.25 1016.58 1017.31
994.40 995.45 996.85 998.37 999.84 1001.04 1002.33 1003.27 1004.07 1005.23 1006.35 1007.12 1007.80 1008.36 1008.70 1009.20 1009.86 1010.38 1010.92 1011.48 1012.07 1012.44 1012.91 1013.28 1013.65 1014.11 1014.67 1015.07 1015.24 1015.53 1015.91 1016.03
994.04 995.07 996.16 997.67 999.18 1000.25 1001.45 1002.44 1003.38 1004.16 1005.34 1006.37 1007.05 1007.53 1008.03 1008.53 1008.88 1009.23 1009.80 1010.51 1011.03 1011.32 1011.72 1012.33 1012.84 1013.29 1013.65 1013.91 1014.12 1014.49 1014.84 1015.01
994.53 995.14 996.02 997.32 998.65 999.81 1000.72 1001.65 1002.37 1003.15 1004.07 1005.03 1005.92 1006.81 1007.33 1007.61 1007.85 1008.20 1008.72 1009.20 1009.88 1010.31 1010.67 1010.99 1011.42 1011.88 1012.40 1012.62 1012.88 1013.05 1013.44 1013.65
995.38 995.54 996.19 997.15 998.26 999.22 1000.03 1000.84 1001.65 1002.33 1003.06 1003.90 1004.79 1005.60 1006.17 1006.36 1006.69 1007.32 1007.87 1008.29 1008.61 1009.12 1009.36 1009.46 1009.81 1010.43 1010.99 1011.29 1011.67 1011.97 1012.07 1012.00
997.10 997.05 996.79 996.96 997.78 998.69 999.42 1000.06 1000.76 1001.49 1002.11 1002.68 1003.33 1004.03 1004.70 1005.33 1005.64 1006.01 1006.55 1006.76 1007.26 1007.61 1007.86 1008.25 1008.69 1009.18 1009.52 1009.83 1010.04 1010.26 1010.49 1010.68
998.73 998.44 998.48 998.49 998.30 998.19 998.52 998.95 999.72 1000.46 1001.02 1001.46 1001.85 1002.68 1003.40 1004.03 1004.55 1004.85 1005.25 1005.63 1005.78 1006.19 1006.63 1006.98 1007.32 1007.71 1007.79 1008.20 1008.61 1008.92 1009.29 1009.58
1000.28 1000.20 999.96 999.79 999.77 999.64 999.58 998.90 998.76 999.38 1000.00 1000.29 1001.01 1001.55 1002.08 1002.42 1002.89 1003.38 1003.87 1004.06 1004.42 1004.96 1005.25 1005.57 1005.97 1006.08 1006.18 1006.75 1007.35 1007.67 1007.96 1008.36
1001.87 1001.90 1001.83 1001.73 1001.81 1001.43 1000.89 1000.05 999.43 998.86 998.89 999.36 999.96 1000.40 1000.86 1001.33 1002.04 1002.55 1002.60 1002.95 1003.72 1003.79 1004.08 1004.36 1004.45 1004.71 1004.98 1005.62 1006.20 1006.78 1007.05 1007.16
1003.14 1003.28 1003.55 1004.13 1004.08 1003.48 1002.90 1001.78 1000.35 999.69 999.05 998.61 998.94 999.55 999.92 1000.25 1000.99 1001.42 1001.82 1002.39 1002.84 1003.29 1003.63 1004.16 1004.55 1004.40 1004.69 1005.04 1005.52 1006.17 1006.27 1006.35
Thickness
5698 5689 5681 5676 5668 5656 5650 5645 5641 5636 5630 5623 5619 5618 5615 5613 5608 5606 5603 5606 5610 5611 5609 5603 5613 5610 5613 5609 5607 5608 5607 5605
5701 5691 5682 5675 5666 5657 5648 5643 5637 5631 5625 5621 5615 5613 5614 5611 5608 5603 5601 5604 5609 5610 5611 5613 5611 5608 5606 5603 5600 5600 5601 5601
5701 5689 5681 5675 5665 5654 5646 5640 5634 5629 5622 5614 5609 5610 5608 5609 5604 5600 5599 5602 5604 5604 5604 5603 5602 5599 5596 5596 5594 5593 5596 5596
5703 5690 5681 5674 5668 5657 5647 5638 5631 5625 5617 5609 5604 5604 5604 5598 5597 5595 5599 5598 5598 5598 5598 5597 5593 5591 5588 5589 5589 5591 5587 5590
5711 5696 5684 5677 5672 5661 5649 5640 5632 5626 5619 5611 5607 5607 5604 5601 5598 5595 5595 5597 5596 5594 5593 5593 5590 5588 5586 5585 5591 5589 5586 5585
5714 5702 5690 5683 5675 5666 5655 5644 5634 5628 5620 5616 5611 5607 5603 5600 5599 5597 5594 5595 5596 5595 5593 5593 5590 5590 5589 5590 5589 5587 5587 5584
5720 5709 5696 5687 5679 5667 5659 5649 5640 5633 5626 5620 5615 5612 5608 5603 5598 5595 5594 5594 5593 5594 5590 5592 5590 5590 5590 5588 5585 5585 5589 5587
5717 5708 5696 5690 5681 5671 5661 5652 5646 5639 5631 5625 5619 5614 5611 5606 5601 5596 5593 5592 5592 5592 5592 5592 5588 5588 5589 5588 5583 5579 5576 5584
5717 5711 5700 5691 5683 5675 5666 5658 5649 5643 5635 5630 5624 5619 5614 5611 5606 5601 5597 5593 5593 5594 5592 5589 5586 5586 5587 5584 5582 5580 5578 5578
5714 5712 5703 5693 5686 5678 5670 5662 5654 5646 5639 5633 5630 5626 5620 5615 5610 5605 5602 5598 5593 5593 5591 5589 5588 5587 5587 5585 5584 5583 5582 5578
5717 5713 5705 5697 5689 5682 5673 5667 5662 5653 5644 5637 5632 5628 5626 5620 5615 5611 5608 5604 5599 5597 5594 5593 5592 5589 5587 5586 5586 5584 5581 5582
5714 5712 5707 5699 5690 5684 5675 5669 5663 5658 5649 5642 5636 5632 5628 5624 5620 5617 5613 5609 5605 5604 5602 5598 5595 5593 5592 5591 5589 5585 5583 5583
5709 5708 5702 5695 5686 5681 5676 5671 5666 5663 5657 5650 5643 5636 5631 5628 5625 5623 5619 5615 5610 5608 5606 5605 5602 5600 5595 5594 5592 5592 5588 5586
5696 5698 5695 5690 5684 5679 5675 5672 5667 5664 5660 5654 5647 5641 5637 5635 5632 5628 5623 5620 5617 5613 5612 5612 5610 5605 5601 5599 5596 5593 5592 5592
5672 5674 5684 5687 5683 5678 5675 5672 5669 5665 5662 5659 5654 5648 5642 5638 5636 5635 5630 5628 5624 5622 5620 5616 5612 5607 5605 5603 5600 5597 5595 5594
5654 5660 5664 5666 5669 5676 5677 5674 5671 5667 5663 5661 5660 5654 5649 5644 5639 5636 5634 5631 5630 5626 5623 5621 5618 5613 5614 5609 5605 5602 5598 5595
5636 5641 5647 5652 5655 5660 5663 5670 5671 5668 5665 5663 5659 5656 5653 5650 5647 5642 5638 5637 5633 5627 5625 5622 5619 5620 5619 5611 5607 5604 5601 5597
5617 5620 5625 5629 5632 5639 5645 5655 5661 5666 5667 5664 5659 5656 5652 5649 5643 5639 5640 5637 5630 5630 5627 5624 5624 5623 5619 5611 5604 5601 5598 5597
5601 5605 5607 5603 5604 5610 5617 5630 5644 5649 5657 5662 5658 5653 5650 5648 5641 5639 5637 5633 5628 5625 5623 5617 5613 5615 5609 5605 5600 5594 5591 5589